Hourly Data Report for January 22, 2013

BAGOTVILLE A
QUEBEC

48°20'00.000" N
71°00'00.000" W
159.10 m
7060400
71727
YBG

Download Data

Hourly Data (January 2013)
Hourly Data Report for January 22, 2013
TIME
LST
Temp Definition
°C
Dew Point Definition
°C
Rel Hum Definition
%
Precip. Amount Definition
mm

Wind Dir Definition
10's deg

Wind Spd Definition
km/h
Visibility Definition
km
Stn Press Definition
kPa
Hmdx Definition


Wind Chill Definition


Weather Definition


00:00 -26.8 -29.6 77   26 6 24.1 99.50   -33 Mostly Cloudy
01:00 -29.4 -32.4 75   27 7 24.1 99.50   -37 Mainly Clear
02:00 -27.0 -29.8 77   28 11 24.1 99.49   -36 Mainly Clear
03:00 -27.6 -30.5 76   27 9 24.1 99.46   -36 Mainly Clear
04:00 -27.0 -29.8 77   27 7 24.1 99.43   -34 Clear
05:00 -27.6 -30.5 76   27 11 24.1 99.43   -37 Clear
06:00 -28.0 -30.9 76   27 9 24.1 99.48   -36 Clear
07:00 -28.5 -31.4 76   28 9 40.2 99.52   -37 Mainly Clear
08:00 -28.0 -32.4 66   29 11 40.2 99.56   -37 Mainly Clear
09:00 -27.0 -29.8 77   32 9 40.2 99.59   -35 Mostly Cloudy
10:00 -26.6 -29.4 77   30 13 40.2 99.59   -36 Mostly Cloudy
11:00 -25.2 -27.9 78   29 11 40.2 99.53   -34 Mainly Clear
12:00 -24.2 -29.0 64   30 11 40.2 99.44   -33 Mainly Clear
13:00 -23.1 -27.6 67   31 19 40.2 99.38   -34 Mainly Clear
14:00 -22.8 -31.0 47   30 20 40.2 99.37   -34 Mainly Clear
15:00 -23.2 -27.8 66   30 19 40.2 99.42   -34 Mostly Cloudy
16:00 -24.1 -27.8 71   27 17 40.2 99.43   -35 Mostly Cloudy
17:00 -25.2 -27.9 78   28 19 40.2 99.49   -37 Mostly Cloudy
18:00 -26.0 -30.0 69   27 13 24.1 99.52   -36 Mainly Clear
19:00 -26.2 -29.0 77   27 11 24.1 99.56   -35 Mostly Cloudy
20:00 -26.2 -29.0 77   27 17 24.1 99.60   -37 Mainly Clear
21:00 -26.1 -28.9 77   28 20 24.1 99.62   -38 Mainly Clear
22:00 -27.1 -29.9 77   29 17 24.1 99.62   -39 Mainly Clear
23:00 -27.6 -31.9 67   28 20 24.1 99.65   -40 Mainly Clear

Notes on Data Quality.

Legend

  • E = Estimated
  • M = Missing
  • NA = Not Available*
  • [empty] = Indicates an unobserved value
Date modified: